Theta_e
309 311 311 311 312 313 313 312 311 313 314 317 323 333 342 341 342 344 343 344 345 346 345 344 340 342 343 346 349 352 351 352 351 352 352 350 345 344 346 344 344 345 346 350
314 314 314 315 314 315 314 314 314 312 313 322 325 332 336 338 338 339 340 340 340 339 339 341 343 345 345 347 348 353 353 353 353 352 353 353 351 346 344 343 342 344 345 345
315 313 314 314 313 314 315 318 321 314 321 321 323 328 331 330 331 332 335 339 339 337 336 337 341 343 345 345 348 350 355 355 355 356 354 354 354 352 348 346 344 344 348 348
312 312 315 310 310 312 319 320 320 321 321 320 320 322 321 324 327 329 330 330 330 332 334 336 339 345 346 346 344 351 351 356 357 357 356 356 355 354 352 351 348 345 349 349
313 313 312 313 311 315 316 319 317 317 316 319 317 323 322 318 323 325 327 328 328 329 331 334 339 340 348 348 342 341 344 351 354 358 357 356 356 355 355 354 352 349 348 352
314 315 316 312 315 315 313 317 316 315 315 315 317 320 321 315 318 322 325 327 327 327 330 332 334 335 342 348 344 339 343 346 348 354 357 357 357 356 356 355 355 354 351 350
313 314 316 314 313 314 317 314 312 312 312 312 314 315 314 313 315 319 323 326 326 325 328 329 329 332 336 339 343 343 345 351 354 353 355 356 357 357 356 356 355 355 355 353
316 315 315 311 313 316 313 309 309 309 308 309 309 311 311 312 313 315 322 324 325 325 324 325 326 328 329 331 333 334 337 343 350 356 356 356 357 357 357 356 356 355 356 357
311 316 312 308 308 308 307 306 307 306 307 307 309 309 310 312 313 314 320 322 324 325 323 323 323 325 326 326 328 330 333 341 344 350 358 356 356 357 357 356 357 357 355 355
306 309 309 306 307 305 306 307 307 307 306 306 308 309 312 313 314 314 318 320 323 324 325 324 322 322 323 323 327 330 330 332 339 344 357 358 356 357 357 358 357 357 358 358
305 305 305 307 306 305 306 307 307 306 306 306 310 310 311 311 313 315 318 319 323 322 324 322 320 321 319 320 323 324 327 328 333 343 358 360 358 358 357 358 358 358 357 358
304 304 305 306 306 305 306 305 306 307 307 307 309 309 310 311 315 316 318 321 320 321 320 317 316 316 316 316 318 322 323 326 329 332 342 360 361 360 360 359 359 359 358 359
305 304 304 304 305 306 305 306 305 306 306 308 307 309 310 312 315 317 318 318 317 317 314 312 312 313 312 314 315 319 320 322 324 328 336 354 361 361 358 359 361 360 360 360
304 305 306 306 306 306 306 305 305 305 304 305 307 309 311 312 315 313 312 312 314 312 310 309 309 309 309 312 314 317 318 319 322 326 330 339 358 363 360 359 358 359 363 362
306 305 304 305 305 306 305 304 305 305 304 306 307 308 308 310 309 309 308 309 308 307 307 306 306 307 308 310 313 313 315 317 319 321 326 331 342 358 363 360 358 360 357 362
307 307 306 306 306 305 304 304 305 305 305 304 305 306 306 308 308 306 306 306 306 305 304 304 304 305 307 307 309 311 315 317 318 321 325 331 340 350 358 360 358 356 351 355
306 306 306 306 306 305 304 304 304 305 307 305 305 304 305 306 305 305 304 304 304 304 302 302 303 305 305 306 308 311 312 315 318 325 330 338 342 348 355 357 356 353 349 349
306 306 305 305 305 305 304 304 305 305 306 306 305 304 305 304 304 304 303 302 302 303 301 302 303 304 304 305 308 310 311 312 313 313 321 335 339 345 350 354 352 346 341 342
309 307 307 307 307 306 305 305 305 305 306 305 306 305 304 303 303 302 302 302 302 302 301 302 303 301 302 304 305 308 311 307 307 311 308 317 327 331 331 343 341 340 339 339
310 310 310 308 308 307 307 306 307 307 307 306 306 305 303 302 302 301 302 301 302 302 301 301 301 300 300 301 302 305 307 302 303 306 304 304 307 308 313 322 330 332 332 332
311 311 311 310 307 307 307 306 306 306 306 306 306 305 303 301 301 301 301 301 301 302 300 300 301 299 300 299 299 301 300 299 299 299 300 300 301 303 302 304 307 308 312 321
309 309 308 309 308 305 306 306 306 306 306 306 306 305 304 303 301 301 301 301 301 301 301 300 300 300 299 297 297 297 298 297 297 297 297 297 297 298 299 298 299 302 302 305
309 308 308 308 308 307 305 306 306 306 306 306 305 304 302 302 302 301 301 302 302 302 302 301 300 299 298 296 296 296 296 296 296 296 296 296 296 296 296 298 297 298 297 296
307 307 308 308 308 306 304 305 307 306 306 306 305 304 303 302 302 302 303 303 303 303 302 302 301 299 298 297 296 296 296 296 296 296 296 296 295 295 295 295 295 295 296 296
309 307 306 306 307 304 304 306 306 305 305 305 305 305 304 303 303 303 303 302 302 303 303 302 301 300 299 298 297 297 296 296 295 296 295 295 295 295 295 295 295 295 295 295
306 307 306 306 306 305 305 304 305 305 305 304 304 304 304 303 303 303 303 303 302 302 301 301 302 300 299 299 298 298 297 297 297 296 295 295 295 295 294 294 295 295 294 294
305 306 306 305 304 304 303 305 305 304 304 305 305 304 304 304 303 304 303 302 301 301 301 300 301 301 300 300 299 298 298 298 297 297 296 296 296 296 295 295 295 294 294 294
Wind_Speed
2 6 8 9 12 11 7 4 4 6 6 8 10 10 13 14 14 18 17 12 9 9 11 15 13 16 21 22 34 36 37 38 40 37 38 38 41 41 44 48 42 41 36 33
7 7 10 13 10 11 11 5 5 9 3 8 6 10 14 15 15 17 13 11 13 14 18 26 10 8 8 11 22 33 37 37 36 37 36 37 38 40 41 46 46 45 42 40
1 5 7 9 2 3 7 9 1 2 5 7 9 12 11 11 13 13 12 10 9 10 15 18 19 15 11 13 8 25 35 35 36 35 36 36 34 36 39 42 41 40 43 42
3 4 3 5 7 5 8 10 7 5 9 12 6 4 11 10 11 11 9 9 10 13 19 22 23 17 10 8 15 5 26 33 34 35 35 35 35 36 37 35 39 39 38 41
4 5 6 10 7 3 4 4 8 6 9 12 18 1 4 14 10 9 7 9 14 15 16 20 20 23 13 7 15 19 15 9 22 32 34 34 35 36 36 35 36 37 38 38
2 3 5 1 12 15 3 3 8 8 7 8 11 6 3 13 10 6 10 10 12 16 13 19 32 34 25 14 18 16 12 15 20 25 35 37 39 38 37 38 37 35 37 38
4 4 5 6 12 10 3 2 6 8 7 7 3 4 13 13 11 9 6 8 9 13 8 12 17 22 19 21 19 26 22 19 26 32 39 43 40 39 37 36 35 35 36 36
2 3 5 9 3 2 5 3 4 4 5 9 11 9 12 16 14 15 7 8 8 9 14 13 15 17 18 14 26 25 25 24 30 27 34 38 40 38 38 36 36 35 33 33
5 3 3 1 4 5 4 5 4 7 10 8 16 14 12 13 12 17 14 12 13 6 8 14 16 15 11 19 24 25 25 24 32 33 28 36 36 38 35 36 35 34 33 33
2 1 4 7 2 3 6 8 11 10 15 14 12 16 12 11 12 11 16 14 15 17 8 7 16 19 15 21 27 29 27 25 32 31 28 34 35 36 35 35 36 33 32 32
4 6 7 2 4 7 9 10 11 12 14 13 12 13 11 11 11 14 14 14 12 10 10 13 14 12 15 17 19 24 29 35 33 31 27 29 33 34 37 40 42 38 36 33
5 6 5 6 8 9 10 14 13 12 11 14 12 12 13 11 19 15 14 10 5 10 5 9 11 14 14 15 16 18 13 18 25 29 31 26 29 32 41 40 42 45 41 37
5 5 7 7 7 9 7 14 12 11 12 9 14 15 17 16 19 15 13 6 4 4 7 13 16 17 16 16 18 17 20 21 22 23 22 20 26 26 26 39 40 40 43 41
6 3 6 7 7 6 8 16 16 13 11 12 17 13 11 10 3 7 5 4 6 6 9 12 15 18 21 20 21 20 21 24 23 24 23 23 18 27 26 27 28 33 41 44
8 9 9 3 7 7 8 12 10 8 8 9 15 14 14 10 10 10 9 9 6 10 11 11 13 17 19 20 21 24 25 24 24 28 25 25 24 20 25 24 23 25 32 40
11 9 8 9 10 7 5 6 6 6 4 6 10 14 15 11 7 11 13 13 10 9 14 13 12 16 17 18 19 21 23 27 30 29 27 24 21 20 23 26 22 23 26 29
5 5 6 6 7 7 8 6 7 8 10 4 7 9 9 8 7 11 10 12 7 7 16 17 19 19 18 17 17 19 22 27 29 25 23 21 21 21 23 24 24 23 20 22
6 5 7 7 6 6 7 11 11 8 6 4 1 6 7 8 8 9 11 11 10 7 16 20 22 20 18 19 21 15 19 26 23 23 22 9 8 13 25 27 21 21 21 19
10 8 9 10 8 9 9 10 12 11 9 5 3 4 10 12 12 12 12 14 16 15 20 21 21 18 19 17 15 12 15 21 18 20 25 20 14 12 18 15 25 24 24 23
10 11 9 9 13 11 10 9 8 7 12 9 3 2 7 10 11 13 14 14 18 20 23 19 21 19 19 16 14 14 16 16 18 19 24 22 19 23 21 24 26 23 22 25
13 8 10 13 16 6 14 7 5 4 7 8 5 2 5 9 12 13 16 15 22 21 28 26 23 22 19 14 14 21 20 19 19 18 22 23 19 27 27 26 27 25 20 28
9 9 9 14 18 12 15 11 7 4 3 5 5 1 3 4 8 9 13 13 19 21 20 25 29 26 22 19 20 23 24 21 20 22 23 21 22 24 30 27 26 28 24 32
12 16 15 16 14 13 5 13 4 11 6 5 5 5 6 7 3 3 2 12 16 16 15 17 25 29 26 26 26 28 24 22 26 27 24 25 24 25 24 29 28 29 29 27
18 14 15 9 8 8 1 4 11 11 10 6 6 5 2 3 4 4 7 7 6 10 13 10 13 22 33 26 30 27 24 24 23 26 29 30 22 27 27 27 26 27 32 33
12 4 13 14 4 4 12 14 15 10 10 9 6 3 3 3 5 9 12 16 17 11 5 8 11 17 19 21 19 24 26 24 23 28 26 23 26 26 28 30 31 32 33 33
13 10 12 10 18 6 7 13 12 13 14 9 5 2 4 5 7 12 15 14 20 13 8 8 9 14 20 22 23 12 14 29 32 27 28 28 25 26 26 27 28 28 28 28
13 15 13 22 11 16 18 20 19 12 13 12 11 7 3 4 6 14 14 13 15 22 12 11 11 11 13 11 14 19 24 27 28 27 29 28 29 30 30 27 25 26 25 23
Wind_Direction
339 336 332 326 320 331 336 295 284 288 341 6 11 38 12 34 38 51 33 37 22 3 335 336 318 314 244 210 200 197 197 200 204 208 209 215 219 222 231 235 236 238 233 225
4 354 336 315 306 315 314 314 5 333 270 357 349 49 43 37 28 43 27 22 17 15 10 3 291 285 289 268 235 199 199 206 204 206 207 209 216 218 223 231 234 236 239 236
259 22 347 301 277 2 336 39 106 331 7 318 5 44 46 37 45 31 25 24 18 15 358 342 338 356 329 270 275 218 200 203 206 204 207 209 212 215 218 224 227 229 234 236
177 66 255 249 309 314 85 66 36 48 20 332 349 290 53 30 36 38 21 7 351 354 358 340 332 336 349 241 234 253 211 201 204 206 208 208 209 213 217 220 222 223 227 230
155 185 283 306 285 225 140 88 38 7 15 349 339 3 80 26 19 20 11 5 345 346 353 339 332 347 7 255 247 244 245 235 215 208 211 210 209 212 215 217 220 222 223 226
117 154 239 268 331 329 168 153 355 4 15 11 347 7 246 349 333 360 2 17 359 5 355 351 345 358 5 315 277 281 306 300 285 247 218 214 213 212 215 215 220 221 223 224
200 223 260 339 321 319 205 262 356 1 351 359 340 247 293 315 317 325 355 352 20 11 353 353 359 6 358 353 350 343 327 313 291 277 233 218 217 215 214 214 218 221 222 224
275 231 252 1 345 337 346 290 300 326 319 314 298 290 296 303 310 312 326 342 358 15 354 359 1 12 3 353 333 326 316 307 309 289 243 222 213 214 214 213 216 219 219 222
197 246 158 308 279 333 337 268 298 307 313 312 300 300 295 286 293 296 307 329 331 358 3 6 358 13 9 343 332 321 319 312 308 304 253 225 213 211 211 212 214 217 219 222
353 296 225 282 214 334 285 296 300 296 302 304 297 293 292 299 286 286 294 317 322 333 344 359 3 360 5 352 333 329 329 331 312 305 267 229 218 212 210 211 215 217 217 221
250 286 321 16 297 293 295 294 289 292 290 292 286 297 295 300 286 276 285 305 304 323 322 349 360 344 1 350 344 337 335 322 316 300 277 232 222 211 213 216 214 213 217 218
224 198 189 256 270 281 302 305 298 290 282 289 291 288 295 291 277 268 278 297 316 312 352 344 345 336 345 348 351 334 314 302 298 302 299 252 225 215 218 221 223 221 220 215
226 195 208 238 263 264 293 314 311 300 290 289 303 291 291 289 273 252 284 282 354 29 1 348 345 344 339 335 327 338 319 313 303 298 291 292 229 219 215 220 222 223 225 224
205 155 287 237 243 238 294 301 306 308 306 303 298 286 329 330 284 140 102 348 342 31 17 354 341 328 328 339 336 336 318 318 312 299 300 293 276 229 217 212 212 219 220 223
218 200 223 257 242 249 282 315 332 335 331 324 346 0 9 9 5 42 37 43 18 1 14 359 336 326 332 332 333 320 325 319 308 303 292 289 282 258 229 218 217 216 215 220
221 223 238 242 254 236 238 298 313 312 312 347 358 6 8 16 358 41 27 45 34 1 350 341 330 328 336 324 324 317 326 321 312 299 292 287 275 254 234 222 212 212 214 218
186 218 213 236 225 226 224 232 258 286 325 78 17 360 1 1 10 21 16 38 25 10 359 343 331 332 336 331 337 332 336 328 314 310 298 275 259 254 239 215 206 208 208 212
196 189 216 241 253 218 234 224 241 276 305 171 264 2 2 4 7 359 13 18 17 19 4 352 344 336 348 350 346 345 342 334 322 334 329 319 326 276 233 221 183 157 155 154
203 215 232 256 267 246 231 231 238 242 256 248 264 353 12 14 357 8 15 18 18 11 358 2 348 352 355 1 347 9 15 340 336 360 354 352 33 43 18 177 123 120 132 133
225 244 262 254 272 256 231 249 242 244 235 237 255 60 42 28 18 23 22 24 14 13 13 11 11 8 4 12 8 41 44 357 358 35 19 4 33 38 31 58 68 100 112 116
209 233 44 308 276 270 218 242 211 202 216 221 204 176 112 70 51 40 40 32 14 22 25 25 26 23 20 18 31 59 51 27 23 31 39 24 26 54 44 44 55 59 76 97
165 147 151 228 278 268 227 235 198 167 120 154 136 66 23 100 62 46 37 35 28 25 27 29 30 31 29 29 39 53 54 37 37 39 45 44 45 49 58 47 52 66 64 79
157 166 195 234 244 272 279 214 183 176 149 152 129 118 56 54 59 79 36 36 22 17 19 32 38 41 40 34 39 46 49 44 45 45 44 51 51 59 63 72 62 68 63 68
179 193 205 258 202 217 102 135 141 143 129 155 181 171 94 42 18 0 339 337 354 4 8 28 34 48 53 49 49 46 46 49 51 56 54 58 49 60 66 73 75 73 80 82
187 81 41 356 223 209 136 138 153 145 145 146 180 254 250 281 289 346 355 358 352 348 352 49 66 70 67 66 67 57 57 62 63 68 64 62 62 62 65 72 76 80 86 88
107 101 75 21 358 267 143 169 150 145 146 143 175 210 294 289 320 326 328 345 23 45 85 78 79 81 77 71 74 92 92 78 71 71 74 77 78 74 73 77 82 85 86 90
94 103 97 82 53 18 127 132 142 159 161 132 121 102 92 204 327 353 29 46 60 48 101 106 101 95 89 95 93 81 75 75 76 80 81 82 80 79 79 81 84 85 85 87